Medford, WI

4:50 AM CDT on July 24, 2017 (GMT -0500)
Taylor County

Weather History for KMDZ - May, 2013

Change the Weather History Date:

Sunday, May 12, 2013

  Actual Average Record
Temperature  
Mean Temperature 41 °F -  
Max Temperature 50 °F 66 °F 83 °F (1991)
Min Temperature 32 °F 41 °F 25 °F (1967)
Degree Days  
Heating Degree Days 24    
Moisture  
Dew Point 21 °F    
Average Humidity 47    
Maximum Humidity 65    
Minimum Humidity 24    
Precipitation  
Precipitation 0.00 in - - ()
Sea Level Pressure  
Sea Level Pressure 30.06 in    
Wind  
Wind Speed 10 mph (NW)    
Max Wind Speed 17 mph    
Max Gust Speed 28 mph    
Visibility 10 miles    
Events      
Averages and records for this station are not official NWS values.
T = Trace of Precipitation, MM = Missing Value Source: NWS Daily Summary

Daily Weather History Graph

Daily Weather History Graph

Search for Another Location

Airport or City:

Trip Planner

Search our weather history database for the weather conditions in past years. The results will help you decide how hot, cold, wet, or windy it might be!

Date:

Astronomy

May. 12, 2013 Rise Set
Actual Time 5:35 AM CDT 8:20 PM CDT
Civil Twilight 5:01 AM CDT 8:54 PM CDT
Nautical Twilight 4:18 AM CDT 9:37 PM CDT
Astronomical Twilight 3:28 AM CDT 10:28 PM CDT
Moon 7:28 AM CDT (5/12) 10:49 PM CDT (5/12)
Length of Visible Light 15h 53m
Length of Day
14h 45m
Waxing Crescent, 7% of the Moon is Illuminated
May 12
Waxing Crescent
May 17
First Quarter
May 24
Full
May 31
Last Quarter
Jun 8
New

Hourly Weather History & Observations

Time (CDT) Temp. Windchill Dew Point Humidity Pressure Visibility Wind Dir Wind Speed Gust Speed Precip Events Conditions
12:15 AM 35.6 °F 28.0 °F 24.8 °F 65% 30.04 in 10.0 mi NW 10.4 mph 17.3 mph N/A   Clear
12:35 AM 35.6 °F 27.5 °F 23.0 °F 60% 30.04 in 10.0 mi NNW 11.5 mph 16.1 mph N/A   Clear
12:55 AM 35.6 °F 29.2 °F 24.8 °F 65% 30.04 in 10.0 mi NW 8.1 mph - N/A   Clear
1:15 AM 35.6 °F 27.5 °F 23.0 °F 60% 30.04 in 10.0 mi NW 11.5 mph - N/A   Clear
1:35 AM 35.6 °F 28.6 °F 23.0 °F 60% 30.04 in 10.0 mi NW 9.2 mph - N/A   Clear
1:55 AM 35.6 °F 29.9 °F 23.0 °F 60% 30.05 in 10.0 mi NW 6.9 mph 16.1 mph N/A   Clear
2:15 AM 33.8 °F 26.4 °F 23.0 °F 65% 30.04 in 10.0 mi NW 9.2 mph - N/A   Clear
2:35 AM 33.8 °F 27.0 °F 23.0 °F 65% 30.05 in 10.0 mi NW 8.1 mph - N/A   Clear
2:55 AM 33.8 °F 25.8 °F 21.2 °F 60% 30.05 in 10.0 mi NW 10.4 mph 17.3 mph N/A   Clear
3:15 AM 33.8 °F 26.4 °F 21.2 °F 60% 30.05 in 10.0 mi NW 9.2 mph - N/A   Clear
3:35 AM 33.8 °F 27.0 °F 21.2 °F 60% 30.06 in 10.0 mi NW 8.1 mph - N/A   Clear
3:55 AM 33.8 °F 27.0 °F 21.2 °F 60% 30.06 in 10.0 mi NW 8.1 mph - N/A   Scattered Clouds
4:35 AM 33.8 °F 26.4 °F 21.2 °F 60% 30.06 in 10.0 mi NW 9.2 mph - N/A   Scattered Clouds
4:55 AM 33.8 °F 27.7 °F 21.2 °F 60% 30.06 in 10.0 mi NW 6.9 mph - N/A   Clear
5:15 AM 32.0 °F 24.2 °F 21.2 °F 64% 30.06 in 10.0 mi NW 9.2 mph - N/A   Scattered Clouds
5:35 AM 32.0 °F 24.2 °F 21.2 °F 64% 30.06 in 10.0 mi NNW 9.2 mph - N/A   Scattered Clouds
5:55 AM 33.8 °F 28.6 °F 21.2 °F 60% 30.07 in 10.0 mi NNW 5.8 mph - N/A   Mostly Cloudy
6:15 AM 33.8 °F 27.7 °F 21.2 °F 60% 30.07 in 10.0 mi NNW 6.9 mph - N/A   Overcast
6:35 AM 33.8 °F 27.0 °F 21.2 °F 60% 30.07 in 10.0 mi NNW 8.1 mph - N/A   Overcast
6:55 AM 33.8 °F 25.8 °F 21.2 °F 60% 30.07 in 10.0 mi NNW 10.4 mph - N/A   Overcast
7:15 AM 33.8 °F 26.4 °F 21.2 °F 60% 30.07 in 10.0 mi NW 9.2 mph 16.1 mph N/A   Overcast
7:35 AM 35.6 °F 27.1 °F 21.2 °F 56% 30.08 in 10.0 mi NNW 12.7 mph 16.1 mph N/A   Overcast
7:55 AM 35.6 °F 28.6 °F 21.2 °F 56% 30.08 in 10.0 mi NNW 9.2 mph 19.6 mph N/A   Overcast
8:15 AM 35.6 °F 27.1 °F 21.2 °F 56% 30.09 in 10.0 mi NNW 12.7 mph 19.6 mph N/A   Mostly Cloudy
8:35 AM 35.6 °F 26.2 °F 21.2 °F 56% 30.09 in 10.0 mi NNW 15.0 mph 20.7 mph N/A   Scattered Clouds
8:55 AM 37.4 °F 29.3 °F 23.0 °F 56% 30.09 in 10.0 mi NNW 12.7 mph 16.1 mph N/A   Mostly Cloudy
9:15 AM 37.4 °F 30.3 °F 23.0 °F 56% 30.09 in 10.0 mi North 10.4 mph - N/A   Scattered Clouds
9:35 AM 37.4 °F 29.8 °F 21.2 °F 52% 30.09 in 10.0 mi NNW 11.5 mph 19.6 mph N/A   Scattered Clouds
9:55 AM 39.2 °F 32.0 °F 24.8 °F 56% 30.09 in 10.0 mi NW 11.5 mph - N/A   Scattered Clouds
10:15 AM 39.2 °F 31.6 °F 24.8 °F 56% 30.09 in 10.0 mi WNW 12.7 mph 21.9 mph N/A   Mostly Cloudy
10:35 AM 41.0 °F 34.3 °F 24.8 °F 53% 30.08 in 10.0 mi NW 11.5 mph 19.6 mph N/A   Scattered Clouds
10:55 AM 41.0 °F 35.8 °F 24.8 °F 53% 30.08 in 10.0 mi NNW 8.1 mph 23.0 mph N/A   Scattered Clouds
11:15 AM 42.8 °F 35.4 °F 23.0 °F 46% 30.09 in 10.0 mi NNW 15.0 mph 24.2 mph N/A   Clear
11:35 AM 42.8 °F 36.2 °F 23.0 °F 46% 30.08 in 10.0 mi North 12.7 mph - N/A   Clear
11:55 AM 44.6 °F 37.4 °F 24.8 °F 46% 30.08 in 10.0 mi NW 16.1 mph 20.7 mph N/A   Clear
12:15 PM 44.6 °F 39.7 °F 24.8 °F 46% 30.07 in 10.0 mi NW 9.2 mph 19.6 mph N/A   Clear
12:35 PM 44.6 °F 39.7 °F 24.8 °F 46% 30.07 in 10.0 mi NW 9.2 mph 23.0 mph N/A   Clear
12:55 PM 44.6 °F 38.8 °F 24.8 °F 46% 30.06 in 10.0 mi NW 11.5 mph 18.4 mph N/A   Clear
1:15 PM 46.4 °F 39.8 °F 21.2 °F 37% 30.06 in 10.0 mi NNW 16.1 mph 23.0 mph N/A   Clear
1:35 PM 46.4 °F 41.1 °F 21.2 °F 37% 30.05 in 10.0 mi NNW 11.5 mph 21.9 mph N/A   Clear
1:55 PM 48.2 °F - 24.8 °F 40% 30.05 in 10.0 mi WNW 15.0 mph 24.2 mph N/A   Clear
2:15 PM 46.4 °F 40.1 °F 21.2 °F 37% 30.05 in 10.0 mi NW 15.0 mph 23.0 mph N/A   Scattered Clouds
2:35 PM 48.2 °F - 21.2 °F 34% 30.05 in 10.0 mi NNW 15.0 mph 21.9 mph N/A   Clear
2:55 PM 48.2 °F - 21.2 °F 34% 30.04 in 10.0 mi NW 12.7 mph 27.6 mph N/A   Clear
3:15 PM 48.2 °F - 21.2 °F 34% 30.04 in 10.0 mi NW 11.5 mph 21.9 mph N/A   Scattered Clouds
3:35 PM 48.2 °F - 19.4 °F 32% 30.04 in 10.0 mi WNW 15.0 mph 21.9 mph N/A   Scattered Clouds
3:55 PM 50.0 °F - 19.4 °F 30% 30.04 in 10.0 mi NW 15.0 mph 21.9 mph N/A   Scattered Clouds
4:15 PM 50.0 °F - 21.2 °F 32% 30.04 in 10.0 mi WNW 13.8 mph 23.0 mph N/A   Clear
4:35 PM 50.0 °F - 17.6 °F 28% 30.04 in 10.0 mi NW 17.3 mph 26.5 mph N/A   Clear
4:55 PM 50.0 °F - 17.6 °F 28% 30.04 in 10.0 mi NNW 16.1 mph 27.6 mph N/A   Clear
5:15 PM 50.0 °F - 17.6 °F 28% 30.04 in 10.0 mi NW 16.1 mph 21.9 mph N/A   Clear
5:35 PM 50.0 °F - 17.6 °F 28% 30.04 in 10.0 mi NW 15.0 mph 24.2 mph N/A   Clear
5:55 PM 50.0 °F - 15.8 °F 26% 30.04 in 10.0 mi NNW 10.4 mph 18.4 mph N/A   Clear
6:15 PM 48.2 °F - 14.0 °F 25% 30.04 in 10.0 mi NW 13.8 mph 20.7 mph N/A   Clear
6:35 PM 48.2 °F - 14.0 °F 25% 30.04 in 10.0 mi NW 13.8 mph 20.7 mph N/A   Clear
6:55 PM 48.2 °F - 15.8 °F 27% 30.04 in 10.0 mi NW 13.8 mph 20.7 mph N/A   Clear
7:15 PM 48.2 °F - 12.2 °F 24% 30.04 in 10.0 mi NW 8.1 mph 18.4 mph N/A   Clear
7:35 PM 48.2 °F - 12.2 °F 24% 30.04 in 10.0 mi NNW 9.2 mph - N/A   Clear
7:55 PM 46.4 °F 43.5 °F 15.8 °F 29% 30.05 in 10.0 mi NNW 5.8 mph - N/A   Clear
8:15 PM 46.4 °F 42.9 °F 15.8 °F 29% 30.06 in 10.0 mi North 6.9 mph - N/A   Clear
8:35 PM 44.6 °F 42.2 °F 15.8 °F 31% 30.06 in 10.0 mi North 4.6 mph - N/A   Clear
8:55 PM 44.6 °F - 14.0 °F 29% 30.06 in 10.0 mi Calm Calm - N/A   Clear
9:15 PM 42.8 °F - 15.8 °F 34% 30.07 in 10.0 mi Calm Calm - N/A   Clear
9:35 PM 42.8 °F - 17.6 °F 36% 30.07 in 10.0 mi Calm Calm - N/A   Clear
9:55 PM 41.0 °F 37.1 °F 19.4 °F 42% 30.08 in 10.0 mi ENE 5.8 mph - N/A   Clear
10:15 PM 39.2 °F 37.0 °F 19.4 °F 45% 30.08 in 10.0 mi ENE 3.5 mph - N/A   Clear
10:35 PM 37.4 °F - 21.2 °F 52% 30.09 in 10.0 mi Calm Calm - N/A   Clear
10:55 PM 37.4 °F - 21.2 °F 52% 30.09 in 10.0 mi Calm Calm - N/A   Clear
11:15 PM 35.6 °F - 21.2 °F 56% 30.09 in 10.0 mi Calm Calm - N/A   Clear
11:35 PM 35.6 °F - 24.8 °F 65% 30.10 in 10.0 mi Calm Calm - N/A   Clear
11:55 PM 35.6 °F - 23.0 °F 60% 30.10 in 7.0 mi Calm Calm - N/A   Clear